Project,Study,Ord_Occ,Event_Num,Cast_ID,Date_Time_UTC,Date_Time_PST,Lat_Dec,Lon_Dec,Sta_ID,Line,Sta,Depth,Pressure,PrQ,Temp1,Temp1Q,Temp2,Temp2Q,TempAve,Salt1,Salt1Q,Salt1_Corr,Salt2,Salt2Q,Salt2_Corr,SaltAve_Corr,Ox1,Ox1Q,Ox1_CruiseCorr,Ox1_StaCorr,Ox2,Ox2Q,Ox2_CruiseCorr,Ox2_StaCorr,OxAve_StaCorr,Ox1uM,Ox1uM_CruiseCorr,Ox1uM_StaCorr,Ox2uM,Ox2uM_CruiseCorr,Ox2uM_StaCorr,OxAveuM_StaCorr,FluorV,FluorQ,EstChl_CruiseCorr,EstChl_StaCorr,ISUSV,ISUSQ,EstNO3_CruiseCorr,EstNO3_StaCorr,SigThetaTS1,SigThetaTS1Q,SigThetaTS2,SigThetaTS2Q,BAT,XMiss,TransQ,pH,pHQ,SPAR,SPARQ,PAR,PARQ,PoT1,PoT2,DynHt,SVA,OxSat1,OxSat2,BTL_Depth,BTL_Temp,SaltB,OxB,OxBuM,Chl-a,Phaeo,NO3,NO2,NH4,PO4,SIL
CalCOFI,2007SR,054,56,2007_054u,23-Jul-2020 14:44:59,23-Jul-2020 06:44:59,33.87821,-120.13206,083.3 051.0,083.3,051.0,91.000,91.674,,9.4925,,9.4925,,9.4925,33.9874,,33.9876,33.9891,,33.9907,33.9892,2.3744,,2.4633,2.4636,3.0929,,3.4425,3.0854,2.7745,103.331,107.3791,107.5243,134.599,87.1880,134.5330,121.0287,0.0298,,,0.0000,-99.0,,-99.0,-99.0,26.2474,,26.2487,,0.6609,84.7714,,7.751,,2.4127E+02,,1.8638E-02,,9.4825,9.4825,0.2040,,36.947,48.127,,,,,,,,,,,,
CalCOFI,2007SR,054,56,2007_054u,23-Jul-2020 14:45:27,23-Jul-2020 06:45:27,33.87819,-120.13206,083.3 051.0,083.3,051.0,90.000,90.666,,9.4950,,9.4951,,9.4951,33.9881,,33.9883,33.9895,,33.9911,33.9897,2.3651,,2.4536,2.4539,3.0518,,3.3444,2.9604,2.7072,102.925,106.9553,107.1012,132.805,86.1950,129.0865,118.0939,0.0331,,,0.0000,-99.0,,-99.0,-99.0,26.2475,,26.2486,,0.6656,84.6700,,7.755,,2.4245E+02,,1.4290E-02,,9.4850,9.4851,0.2052,,36.804,47.489,90,9.495,33.9885,2.482,108.31,0.022,0.112,24.96,0.039,0.12,2.02,29.38
CalCOFI,2007SR,054,56,2007_054u,23-Jul-2020 14:45:32,23-Jul-2020 06:45:32,33.87820,-120.13206,083.3 051.0,083.3,051.0,89.000,89.658,,9.4946,,9.4943,,9.4945,33.9877,,33.9879,33.9893,,33.9909,33.9894,2.3671,,2.4557,2.4560,3.0471,,3.3331,2.9461,2.7011,103.011,107.0451,107.1908,132.601,86.4053,128.4672,117.8290,0.0320,,,0.0000,-99.0,,-99.0,-99.0,26.2473,,26.2486,,0.6643,84.6969,,7.756,,2.4384E+02,,1.0580E-02,,9.4847,9.4844,0.2054,,36.834,47.415,,,,,,,,,,,,
CalCOFI,2007SR,054,56,2007_054u,23-Jul-2020 14:45:33,23-Jul-2020 06:45:33,33.87820,-120.13206,083.3 051.0,083.3,051.0,88.000,88.650,,9.4938,,9.4935,,9.4937,33.9877,,33.9879,33.9893,,33.9909,33.9894,2.3657,,2.4542,2.4545,3.0424,,3.3219,2.9318,2.6932,102.948,106.9793,107.1252,132.400,86.2512,127.8569,117.4911,0.0322,,,0.0000,-99.0,,-99.0,-99.0,26.2474,,26.2487,,0.6652,84.6788,,7.756,,2.4375E+02,,1.0177E-02,,9.4840,9.4837,0.2054,,36.811,47.342,,,,,,,,,,,,
CalCOFI,2007SR,054,56,2007_054u,23-Jul-2020 14:45:36,23-Jul-2020 06:45:36,33.87820,-120.13206,083.3 051.0,083.3,051.0,87.000,87.643,,9.4933,,9.4931,,9.4932,33.9879,,33.9881,33.9894,,33.9910,33.9896,2.3667,,2.4553,2.4556,3.0376,,3.3105,2.9172,2.6864,102.994,107.0273,107.1731,132.187,86.3637,127.2103,117.1917,0.0327,,,0.0000,-99.0,,-99.0,-99.0,26.2476,,26.2488,,0.6655,84.6724,,7.756,,2.4503E+02,,1.8054E-03,,9.4836,9.4834,0.2054,,36.827,47.266,,,,,,,,,,,,
CalCOFI,2007SR,054,56,2007_054u,23-Jul-2020 14:45:38,23-Jul-2020 06:45:38,33.87820,-120.13206,083.3 051.0,083.3,051.0,86.000,86.635,,9.4930,,9.4931,,9.4931,33.9880,,33.9882,33.9893,,33.9909,33.9896,2.3659,,2.4544,2.4547,3.0332,,3.3000,2.9038,2.6793,102.957,106.9887,107.1345,131.999,86.2733,126.6395,116.8870,0.0318,,,0.0000,-99.0,,-99.0,-99.0,26.2477,,26.2487,,0.6648,84.6880,,7.756,,2.4564E+02,,5.6809E-03,,9.4834,9.4835,0.2054,,36.813,47.199,,,,,,,,,,,,
CalCOFI,2007SR,054,56,2007_054u,23-Jul-2020 14:45:39,23-Jul-2020 06:45:39,33.87820,-120.13206,083.3 051.0,083.3,051.0,85.000,85.628,,9.4932,,9.4933,,9.4933,33.9879,,33.9881,33.9892,,33.9908,33.9895,2.3706,,2.4593,2.4596,3.0307,,3.2940,2.8962,2.6779,103.165,107.2058,107.3513,131.891,86.7820,126.3117,116.8315,0.0321,,,0.0000,-99.0,,-99.0,-99.0,26.2475,,26.2486,,0.6660,84.6617,,7.756,,2.4565E+02,,5.1597E-03,,9.4838,9.4839,0.2054,,36.888,47.160,,,,,,,,,,,,
CalCOFI,2007SR,054,56,2007_054u,23-Jul-2020 14:45:41,23-Jul-2020 06:45:41,33.87820,-120.13206,083.3 051.0,083.3,051.0,84.000,84.620,,9.4935,,9.4936,,9.4936,33.9877,,33.9879,33.9890,,33.9906,33.9893,2.3682,,2.4568,2.4571,3.0225,,3.2744,2.8712,2.6642,103.057,107.0931,107.2387,131.532,86.5178,125.2218,116.2303,0.0318,,,0.0000,-99.0,,-99.0,-99.0,26.2473,,26.2484,,0.6645,84.6938,,7.756,,2.4565E+02,,4.6428E-03,,9.4841,9.4843,0.2054,,36.850,47.032,,,,,,,,,,,,
CalCOFI,2007SR,054,56,2007_054u,23-Jul-2020 14:45:43,23-Jul-2020 06:45:43,33.87819,-120.13206,083.3 051.0,083.3,051.0,83.000,83.613,,9.4932,,9.4933,,9.4933,33.9877,,33.9879,33.9891,,33.9907,33.9893,2.3679,,2.4565,2.4568,3.0208,,3.2704,2.8661,2.6615,103.045,107.0806,107.2262,131.456,86.4885,124.9910,116.1086,0.0331,,,0.0000,-99.0,,-99.0,-99.0,26.2474,,26.2485,,0.6646,84.6914,,7.757,,2.4565E+02,,4.5897E-03,,9.4840,9.4841,0.2054,,36.845,47.004,,,,,,,,,,,,
CalCOFI,2007SR,054,56,2007_054u,23-Jul-2020 14:45:45,23-Jul-2020 06:45:45,33.87819,-120.13206,083.3 051.0,083.3,051.0,82.000,82.605,,9.4931,,9.4932,,9.4932,33.9878,,33.9880,33.9892,,33.9908,33.9894,2.3676,,2.4562,2.4565,3.0185,,3.2649,2.8591,2.6578,103.032,107.0670,107.2127,131.360,86.4567,124.6996,115.9562,0.0332,,,0.0000,-99.0,,-99.0,-99.0,26.2474,,26.2485,,0.6655,84.6730,,7.757,,2.4602E+02,,5.5726E-03,,9.4840,9.4841,0.2054,,36.840,46.970,,,,,,,,,,,,
CalCOFI,2007SR,054,56,2007_054u,23-Jul-2020 14:45:49,23-Jul-2020 06:45:49,33.87820,-120.13206,083.3 051.0,083.3,051.0,81.000,81.597,,9.4933,,9.4933,,9.4933,33.9878,,33.9880,33.9893,,33.9909,33.9895,2.3668,,2.4554,2.4557,3.0109,,3.2467,2.8360,2.6459,102.998,107.0315,107.1773,131.025,86.3735,123.6825,115.4299,0.0320,,,0.0000,-99.0,,-99.0,-99.0,26.2474,,26.2486,,0.6670,84.6412,,7.757,,2.4719E+02,,2.1398E-03,,9.4843,9.4843,0.2054,,36.828,46.851,,,,,,,,,,,,
CalCOFI,2007SR,054,56,2007_054u,23-Jul-2020 14:46:33,23-Jul-2020 06:46:33,33.87820,-120.13206,083.3 051.0,083.3,051.0,80.000,80.590,,9.4932,,9.4931,,9.4932,33.9878,,33.9880,33.9892,,33.9908,33.9894,2.3665,,2.4551,2.4554,2.9725,,3.1550,2.7191,2.5873,102.984,107.0169,107.1627,129.355,86.3393,118.6125,112.8876,0.0327,,,0.0000,-99.0,,-99.0,-99.0,26.2474,,26.2485,,0.6640,84.7039,,7.757,,2.5441E+02,,1.4457E-03,,9.4843,9.4842,0.2072,,36.823,46.253,80,9.493,33.9875,2.501,109.15,0.022,0.092,24.95,0.033,0.00,2.01,29.31
CalCOFI,2007SR,054,56,2007_054u,23-Jul-2020 14:46:46,23-Jul-2020 06:46:46,33.87820,-120.13206,083.3 051.0,083.3,051.0,79.000,79.582,,9.4948,,9.4952,,9.4950,33.9876,,33.9878,33.9889,,33.9905,33.9892,2.3694,,2.4581,2.4584,2.9638,,3.1343,2.6927,2.5756,103.113,107.1516,107.2971,128.976,86.6548,117.4619,112.3795,0.0315,,,0.0000,-99.0,,-99.0,-99.0,26.2470,,26.2479,,0.6653,84.6760,,7.757,,2.5726E+02,,2.2176E-03,,9.4861,9.4864,0.2074,,36.871,46.120,,,,,,,,,,,,
CalCOFI,2007SR,054,56,2007_054u,23-Jul-2020 14:46:47,23-Jul-2020 06:46:47,33.87820,-120.13206,083.3 051.0,083.3,051.0,78.000,78.575,,9.4960,,9.4959,,9.4960,33.9873,,33.9875,33.9887,,33.9903,33.9889,2.3673,,2.4559,2.4562,2.9589,,3.1226,2.6778,2.5670,103.019,107.0534,107.1991,128.766,86.4249,116.8244,112.0118,0.0318,,,0.0000,-99.0,,-99.0,-99.0,26.2466,,26.2476,,0.6672,84.6375,,7.757,,2.5708E+02,,8.9289E-03,,9.4874,9.4872,0.2074,,36.838,46.045,,,,,,,,,,,,
CalCOFI,2007SR,054,56,2007_054u,23-Jul-2020 14:46:49,23-Jul-2020 06:46:49,33.87820,-120.13206,083.3 051.0,083.3,051.0,77.000,77.567,,9.4960,,9.4958,,9.4959,33.9874,,33.9876,33.9887,,33.9903,33.9890,2.3659,,2.4544,2.4547,2.9564,,3.1166,2.6702,2.5625,102.958,106.9898,107.1356,128.655,86.2757,116.4874,111.8115,0.0319,,,0.0000,-99.0,,-99.0,-99.0,26.2466,,26.2476,,0.6657,84.6684,,7.757,,2.5708E+02,,8.1583E-03,,9.4875,9.4873,0.2074,,36.816,46.005,,,,,,,,,,,,
CalCOFI,2007SR,054,56,2007_054u,23-Jul-2020 14:46:51,23-Jul-2020 06:46:51,33.87820,-120.13206,083.3 051.0,083.3,051.0,76.000,76.560,,9.4957,,9.4955,,9.4956,33.9873,,33.9875,33.9888,,33.9904,33.9890,2.3669,,2.4555,2.4558,2.9521,,3.1063,2.6571,2.5565,103.000,107.0336,107.1793,128.469,86.3784,115.9227,111.5510,0.0317,,,0.0000,-99.0,,-99.0,-99.0,26.2466,,26.2477,,0.6651,84.6815,,7.757,,2.5732E+02,,7.4923E-03,,9.4873,9.4871,0.2074,,36.831,45.939,,,,,,,,,,,,
CalCOFI,2007SR,054,56,2007_054u,23-Jul-2020 14:46:54,23-Jul-2020 06:46:54,33.87820,-120.13206,083.3 051.0,083.3,051.0,75.000,75.552,,9.4954,,9.4952,,9.4953,33.9874,,33.9876,33.9888,,33.9904,33.9890,2.3703,,2.4590,2.4593,2.9510,,3.1037,2.6537,2.5565,103.149,107.1891,107.3346,128.421,86.7429,115.7770,111.5558,0.0324,,,0.0000,-99.0,,-99.0,-99.0,26.2466,,26.2477,,0.6664,84.6541,,7.757,,2.5906E+02,,1.2955E-02,,9.4871,9.4869,0.2074,,36.884,45.921,,,,,,,,,,,,
CalCOFI,2007SR,054,56,2007_054u,23-Jul-2020 14:46:56,23-Jul-2020 06:46:56,33.87820,-120.13206,083.3 051.0,083.3,051.0,74.000,74.544,,9.4952,,9.4952,,9.4952,33.9875,,33.9877,33.9888,,33.9904,33.9891,2.3741,,2.4630,2.4633,2.9484,,3.0975,2.6458,2.5546,103.316,107.3635,107.5086,128.310,87.1513,115.4400,111.4743,0.0313,,,0.0000,-99.0,,-99.0,-99.0,26.2467,,26.2477,,0.6659,84.6639,,7.757,,2.5898E+02,,1.4807E-03,,9.4870,9.4870,0.2074,,36.943,45.881,,,,,,,,,,,,
CalCOFI,2007SR,054,56,2007_054u,23-Jul-2020 14:46:57,23-Jul-2020 06:46:57,33.87820,-120.13206,083.3 051.0,083.3,051.0,73.000,73.537,,9.4974,,9.4980,,9.4977,33.9870,,33.9872,33.9882,,33.9898,33.9885,2.3711,,2.4599,2.4602,2.9427,,3.0839,2.6285,2.5444,103.187,107.2288,107.3742,128.058,86.8358,114.6749,111.0246,0.0322,,,0.0000,-99.0,,-99.0,-99.0,26.2460,,26.2468,,0.6657,84.6670,,7.757,,2.5898E+02,,3.0138E-03,,9.4893,9.4899,0.2074,,36.899,45.794,,,,,,,,,,,,
CalCOFI,2007SR,054,56,2007_054u,23-Jul-2020 14:46:59,23-Jul-2020 06:46:59,33.87820,-120.13206,083.3 051.0,083.3,051.0,72.000,72.529,,9.4981,,9.4978,,9.4980,33.9867,,33.9869,33.9881,,33.9897,33.9883,2.3737,,2.4626,2.4629,2.9397,,3.0767,2.6193,2.5411,103.297,107.3436,107.4888,127.928,87.1048,114.2803,110.8846,0.0323,,,0.0000,-99.0,,-99.0,-99.0,26.2456,,26.2467,,0.6649,84.6850,,7.757,,2.5898E+02,,5.5931E-03,,9.4902,9.4899,0.2074,,36.939,45.747,,,,,,,,,,,,
CalCOFI,2007SR,054,56,2007_054u,23-Jul-2020 14:47:05,23-Jul-2020 06:47:05,33.87820,-120.13206,083.3 051.0,083.3,051.0,71.000,71.522,,9.4999,,9.4992,,9.4996,33.9864,,33.9866,33.9879,,33.9895,33.9881,2.3727,,2.4615,2.4618,2.9352,,3.0660,2.6057,2.5338,103.256,107.3008,107.4461,127.733,87.0046,113.6882,110.5672,0.0322,,,0.0000,-99.0,,-99.0,-99.0,26.2451,,26.2464,,0.6648,84.6863,,7.757,,2.5998E+02,,3.6957E-03,,9.4920,9.4913,0.2075,,36.926,45.679,,,,,,,,,,,,
CalCOFI,2007SR,054,56,2007_054u,23-Jul-2020 14:47:42,23-Jul-2020 06:47:42,33.87820,-120.13206,083.3 051.0,083.3,051.0,70.000,70.514,,9.5005,,9.5004,,9.5005,33.9864,,33.9866,33.9878,,33.9894,33.9880,2.3718,,2.4606,2.4609,2.9145,,3.0166,2.5427,2.5018,103.215,107.2580,107.4034,126.831,86.9043,110.9498,109.1766,0.0329,,,0.0000,-99.0,,-99.0,-99.0,26.2449,,26.2461,,0.6647,84.6885,,7.758,,2.6549E+02,,-1.672E-03,,9.4928,9.4927,0.2088,,36.911,45.357,70,9.501,33.9863,2.475,108.02,0.016,0.095,24.82,0.033,0.00,2.01,29.22
CalCOFI,2007SR,054,56,2007_054u,23-Jul-2020 14:47:48,23-Jul-2020 06:47:48,33.87820,-120.13206,083.3 051.0,083.3,051.0,69.000,69.507,,9.4986,,9.4985,,9.4986,33.9867,,33.9869,33.9881,,33.9897,33.9883,2.3789,,2.4680,2.4683,2.9133,,3.0137,2.5390,2.5037,103.525,107.5816,107.7264,126.781,87.6625,110.7980,109.2622,0.0322,,,0.0000,-99.0,,-99.0,-99.0,26.2455,,26.2466,,0.6646,84.6911,,7.758,,2.6470E+02,,-1.663E-06,,9.4909,9.4909,0.2093,,37.021,45.338,,,,,,,,,,,,
CalCOFI,2007SR,054,56,2007_054u,23-Jul-2020 14:47:49,23-Jul-2020 06:47:49,33.87820,-120.13206,083.3 051.0,083.3,051.0,68.000,68.499,,9.5039,,9.5069,,9.5054,33.9861,,33.9863,33.9869,,33.9885,33.9874,2.3789,,2.4680,2.4683,2.9086,,3.0025,2.5247,2.4965,103.526,107.5827,107.7275,126.575,87.6649,110.1726,108.9501,0.0322,,,0.0000,-99.0,,-99.0,-99.0,26.2441,,26.2443,,0.6648,84.6880,,7.758,,2.6560E+02,,1.0000E-12,,9.4963,9.4994,0.2093,,37.025,45.272,,,,,,,,,,,,
CalCOFI,2007SR,054,56,2007_054u,23-Jul-2020 14:47:52,23-Jul-2020 06:47:52,33.87820,-120.13206,083.3 051.0,083.3,051.0,67.000,67.492,,9.5101,,9.5126,,9.5114,33.9847,,33.9849,33.9856,,33.9872,33.9861,2.3840,,2.4733,2.4736,2.9068,,2.9982,2.5193,2.4965,103.746,107.8123,107.9567,126.498,88.2030,109.9389,108.9478,0.0324,,,0.0000,-99.0,,-99.0,-99.0,26.2420,,26.2423,,0.6648,84.6867,,7.758,,2.6640E+02,,3.9963E-06,,9.5027,9.5052,0.2093,,37.109,45.250,,,,,,,,,,,,
CalCOFI,2007SR,054,56,2007_054u,23-Jul-2020 14:47:54,23-Jul-2020 06:47:54,33.87820,-120.13206,083.3 051.0,083.3,051.0,66.000,66.484,,9.5136,,9.5157,,9.5147,33.9841,,33.9843,33.9850,,33.9866,33.9855,2.3949,,2.4847,2.4849,2.9049,,2.9937,2.5135,2.4992,104.221,108.3082,108.4517,126.414,89.3648,109.6839,109.0678,0.0328,,,0.0000,-99.0,,-99.0,-99.0,26.2409,,26.2413,,0.6659,84.6629,,7.759,,2.6467E+02,,1.3945E-05,,9.5063,9.5084,0.2093,,37.281,45.222,,,,,,,,,,,,
CalCOFI,2007SR,054,56,2007_054u,23-Jul-2020 14:47:56,23-Jul-2020 06:47:56,33.87820,-120.13206,083.3 051.0,083.3,051.0,65.000,65.477,,9.5198,,9.5206,,9.5202,33.9828,,33.9830,33.9840,,33.9856,33.9843,2.3996,,2.4896,2.4898,2.8988,,2.9791,2.4949,2.4924,104.428,108.5243,108.6674,126.149,89.8711,108.8793,108.7734,0.0328,,,0.0000,-99.0,,-99.0,-99.0,26.2389,,26.2397,,0.6651,84.6817,,7.759,,2.6647E+02,,9.4130E-04,,9.5125,9.5134,0.2093,,37.360,45.132,,,,,,,,,,,,
CalCOFI,2007SR,054,56,2007_054u,23-Jul-2020 14:47:57,23-Jul-2020 06:47:57,33.87820,-120.13206,083.3 051.0,083.3,051.0,64.000,64.469,,9.5259,,9.5297,,9.5278,33.9818,,33.9820,33.9824,,33.9840,33.9830,2.4023,,2.4925,2.4926,2.9006,,2.9834,2.5004,2.4965,104.542,108.6433,108.7862,126.228,90.1499,109.1192,108.9527,0.0328,,,0.0000,-99.0,,-99.0,-99.0,26.2371,,26.2370,,0.6657,84.6691,,7.759,,2.6681E+02,,1.4519E-05,,9.5188,9.5226,0.2093,,37.406,45.169,,,,,,,,,,,,
CalCOFI,2007SR,054,56,2007_054u,23-Jul-2020 14:47:59,23-Jul-2020 06:47:59,33.87820,-120.13206,083.3 051.0,083.3,051.0,63.000,63.462,,9.5371,,9.5411,,9.5391,33.9796,,33.9798,33.9801,,33.9817,33.9808,2.4200,,2.5110,2.5111,2.8979,,2.9770,2.4922,2.5017,105.314,109.4492,109.5906,126.112,92.0381,108.7670,109.1788,0.0327,,,0.0000,-99.0,,-99.0,-99.0,26.2335,,26.2332,,0.6643,84.6989,,7.760,,2.6826E+02,,3.8652E-04,,9.5301,9.5341,0.2093,,37.690,45.137,,,,,,,,,,,,
CalCOFI,2007SR,054,56,2007_054u,23-Jul-2020 14:48:02,23-Jul-2020 06:48:02,33.87820,-120.13206,083.3 051.0,083.3,051.0,62.000,62.454,,9.5516,,9.5549,,9.5533,33.9767,,33.9769,33.9775,,33.9791,33.9780,2.4343,,2.5259,2.5260,2.8939,,2.9674,2.4800,2.5030,105.938,110.1006,110.2408,125.937,93.5644,108.2357,109.2383,0.0327,,,0.0000,-99.0,,-99.0,-99.0,26.2288,,26.2289,,0.6644,84.6964,,7.761,,2.6659E+02,,1.1876E-04,,9.5447,9.5480,0.2093,,37.925,45.088,,,,,,,,,,,,
CalCOFI,2007SR,054,56,2007_054u,23-Jul-2020 14:48:07,23-Jul-2020 06:48:07,33.87820,-120.13206,083.3 051.0,083.3,051.0,61.000,61.447,,9.5587,,9.5558,,9.5573,33.9747,,33.9749,33.9766,,33.9782,33.9766,2.4233,,2.5144,2.5145,2.8954,,2.9710,2.4846,2.4996,105.461,109.6026,109.7438,126.003,92.3977,108.4361,109.0900,0.0321,,,0.0000,-99.0,,-99.0,-99.0,26.2261,,26.2280,,0.6644,84.6950,,7.761,,2.6757E+02,,8.0427E-04,,9.5519,9.5490,0.2093,,37.759,45.112,,,,,,,,,,,,
CalCOFI,2007SR,054,56,2007_054u,23-Jul-2020 14:48:49,23-Jul-2020 06:48:49,33.87820,-120.13206,083.3 051.0,083.3,051.0,60.000,60.439,,9.5739,,9.5726,,9.5733,33.9711,,33.9713,33.9726,,33.9742,33.9728,2.4422,,2.5342,2.5342,2.9028,,2.9887,2.5071,2.5207,106.280,110.4576,110.5972,126.326,94.4008,109.4167,110.0070,0.0330,,,0.0000,-99.0,,-99.0,-99.0,26.2207,,26.2222,,0.6646,84.6910,,7.767,,2.6989E+02,,2.1588E-04,,9.5673,9.5660,0.2120,,38.064,45.243,60,9.574,33.9895,2.560,111.71,0.024,0.083,24.30,0.032,0.00,1.97,28.17
CalCOFI,2007SR,054,56,2007_054u,23-Jul-2020 14:48:57,23-Jul-2020 06:48:57,33.87820,-120.13206,083.3 051.0,083.3,051.0,59.000,59.432,,9.5696,,9.5706,,9.5701,33.9721,,33.9723,33.9732,,33.9748,33.9736,2.4472,,2.5394,2.5394,2.9002,,2.9824,2.4992,2.5193,106.499,110.6862,110.8254,126.213,94.9365,109.0736,109.9495,0.0326,,,0.0000,-99.0,,-99.0,-99.0,26.2222,,26.2229,,0.6648,84.6868,,7.766,,2.7044E+02,,1.4384E-05,,9.5631,9.5640,0.2121,,38.139,45.200,,,,,,,,,,,,
CalCOFI,2007SR,054,56,2007_054u,23-Jul-2020 14:48:58,23-Jul-2020 06:48:58,33.87820,-120.13206,083.3 051.0,083.3,051.0,58.000,58.424,,9.5764,,9.5789,,9.5777,33.9706,,33.9708,33.9714,,33.9730,33.9719,2.4541,,2.5466,2.5466,2.8996,,2.9810,2.4974,2.5220,106.801,111.0015,111.1401,126.189,95.6751,109.0008,110.0705,0.0318,,,0.0000,-99.0,,-99.0,-99.0,26.2199,,26.2201,,0.6654,84.6748,,7.766,,2.7129E+02,,1.9225E-07,,9.5700,9.5724,0.2121,,38.253,45.199,,,,,,,,,,,,
CalCOFI,2007SR,054,56,2007_054u,23-Jul-2020 14:49:00,23-Jul-2020 06:49:00,33.87820,-120.13206,083.3 051.0,083.3,051.0,57.000,57.417,,9.5872,,9.5904,,9.5888,33.9680,,33.9682,33.9684,,33.9700,33.9691,2.4660,,2.5590,2.5590,2.8985,,2.9784,2.4940,2.5265,107.317,111.5401,111.6778,126.141,96.9372,108.8550,110.2664,0.0318,,,0.0000,-99.0,,-99.0,-99.0,26.2160,,26.2159,,0.6655,84.6712,,7.766,,2.7231E+02,,9.6766E-04,,9.5808,9.5841,0.2121,,38.446,45.192,,,,,,,,,,,,
CalCOFI,2007SR,054,56,2007_054u,23-Jul-2020 14:49:02,23-Jul-2020 06:49:02,33.87820,-120.13206,083.3 051.0,083.3,051.0,56.000,56.410,,9.5982,,9.6003,,9.5993,33.9650,,33.9652,33.9663,,33.9679,33.9666,2.4864,,2.5803,2.5802,2.8973,,2.9755,2.4904,2.5353,108.205,112.4671,112.6031,126.088,99.1091,108.6941,110.6486,0.0321,,,0.0000,-99.0,,-99.0,-99.0,26.2118,,26.2126,,0.6646,84.6915,,7.766,,2.7223E+02,,1.7757E-03,,9.5920,9.5941,0.2121,,38.772,45.183,,,,,,,,,,,,
CalCOFI,2007SR,054,56,2007_054u,23-Jul-2020 14:49:04,23-Jul-2020 06:49:04,33.87820,-120.13206,083.3 051.0,083.3,051.0,55.000,55.402,,9.6154,,9.6254,,9.6204,33.9602,,33.9604,33.9592,,33.9608,33.9606,2.5137,,2.6089,2.6086,2.8941,,2.9679,2.4806,2.5446,109.397,113.7114,113.8452,125.948,102.0246,108.2691,111.0572,0.0327,,,0.0000,-99.0,,-99.0,-99.0,26.2053,,26.2029,,0.6647,84.6894,,7.766,,2.7039E+02,,2.6361E-04,,9.6092,9.6192,0.2121,,39.213,45.155,,,,,,,,,,,,
CalCOFI,2007SR,054,56,2007_054u,23-Jul-2020 14:49:06,23-Jul-2020 06:49:06,33.87820,-120.13206,083.3 051.0,083.3,051.0,54.000,54.395,,9.6422,,9.6551,,9.6487,33.9531,,33.9533,33.9514,,33.9530,33.9532,2.5374,,2.6336,2.6333,2.8927,,2.9645,2.4764,2.5549,110.428,114.7877,114.9196,125.892,104.5463,108.0991,111.5094,0.0324,,,0.0000,-99.0,,-99.0,-99.0,26.1953,,26.1919,,0.6651,84.6815,,7.766,,2.7041E+02,,6.4746E-04,,9.6362,9.6490,0.2121,,39.603,45.161,,,,,,,,,,,,
CalCOFI,2007SR,054,56,2007_054u,23-Jul-2020 14:49:08,23-Jul-2020 06:49:08,33.87820,-120.13206,083.3 051.0,083.3,051.0,53.000,53.387,,9.6712,,9.6880,,9.6796,33.9471,,33.9473,33.9440,,33.9456,33.9465,2.5794,,2.6775,2.6770,2.8902,,2.9586,2.4688,2.5729,112.255,116.6949,116.8233,125.783,109.0148,107.7682,112.2958,0.0334,,,0.0000,-99.0,,-99.0,-99.0,26.1858,,26.1806,,0.6665,84.6523,,7.766,,2.7189E+02,,1.0570E-03,,9.6653,9.6820,0.2121,,40.282,45.152,,,,,,,,,,,,
CalCOFI,2007SR,054,56,2007_054u,23-Jul-2020 14:49:10,23-Jul-2020 06:49:10,33.87820,-120.13206,083.3 051.0,083.3,051.0,52.000,52.380,,9.7167,,9.7533,,9.7350,33.9373,,33.9375,33.9295,,33.9311,33.9343,2.6531,,2.7545,2.7538,2.8859,,2.9483,2.4557,2.6048,115.465,120.0458,120.1683,125.598,116.8660,107.2065,113.6874,0.0332,,,0.0000,-99.0,,-99.0,-99.0,26.1706,,26.1584,,0.6667,84.6482,,7.767,,2.7232E+02,,1.1485E-03,,9.7108,9.7475,0.2121,,41.472,45.145,,,,,,,,,,,,
CalCOFI,2007SR,054,56,2007_054u,23-Jul-2020 14:49:12,23-Jul-2020 06:49:12,33.87820,-120.13206,083.3 051.0,083.3,051.0,51.000,51.372,,9.8089,,9.8423,,9.8256,33.9156,,33.9158,33.9101,,33.9117,33.9138,2.6541,,2.7556,2.7548,2.8856,,2.9476,2.4548,2.6048,115.512,120.0949,120.2172,125.590,116.9810,107.1822,113.6997,0.0433,,0.0845,0.1161,-99.0,,-99.0,-99.0,26.1383,,26.1284,,0.6663,84.6556,,7.770,,2.7231E+02,,1.6145E-03,,9.8031,9.8365,0.2121,,41.565,45.223,,,,,,,,,,,,
CalCOFI,2007SR,054,56,2007_054u,23-Jul-2020 14:49:47,23-Jul-2020 06:49:47,33.87820,-120.13205,083.3 051.0,083.3,051.0,50.000,50.365,,9.8985,,9.8613,,9.8799,33.8932,,33.8934,33.9017,,33.9033,33.8984,2.7104,,2.8144,2.8134,2.9606,,3.1266,2.6829,2.7482,117.965,122.6556,122.7734,128.854,122.9807,117.0915,119.9325,0.0303,,,0.0000,-99.0,,-99.0,-99.0,26.1057,,26.1186,,0.6609,84.7703,,7.793,,2.7243E+02,,1.3343E-03,,9.8928,9.8557,0.2140,,42.523,46.414,50,9.899,33.9098,2.811,122.67,0.033,0.092,22.87,0.030,0.00,1.85,25.22
CalCOFI,2007SR,054,56,2007_054u,23-Jul-2020 14:50:02,23-Jul-2020 06:50:02,33.87820,-120.13204,083.3 051.0,083.3,051.0,49.000,49.357,,9.9041,,9.9111,,9.9076,33.8930,,33.8932,33.8930,,33.8946,33.8939,2.7554,,2.8614,2.8603,2.9692,,3.1472,2.7091,2.7847,119.927,124.7037,124.8178,129.229,127.7795,118.2300,121.5239,0.0344,,,0.0000,-99.0,,-99.0,-99.0,26.1046,,26.1035,,0.6620,84.7481,,7.788,,2.7231E+02,,3.6359E-03,,9.8986,9.9056,0.2144,,43.236,46.597,,,,,,,,,,,,
CalCOFI,2007SR,054,56,2007_054u,23-Jul-2020 14:50:03,23-Jul-2020 06:50:03,33.87820,-120.13204,083.3 051.0,083.3,051.0,48.000,48.350,,9.9606,,9.9895,,9.9751,33.8821,,33.8823,33.8792,,33.8808,33.8816,2.8001,,2.9081,2.9068,2.9660,,3.1395,2.6994,2.8031,121.875,126.7372,126.8477,129.093,132.5440,117.8171,122.3324,0.0338,,,0.0000,-99.0,,-99.0,-99.0,26.0866,,26.0794,,0.6605,84.7802,,7.788,,2.7401E+02,,3.0891E-03,,9.9551,9.9840,0.2143,,43.989,46.622,,,,,,,,,,,,
CalCOFI,2007SR,054,56,2007_054u,23-Jul-2020 14:50:05,23-Jul-2020 06:50:05,33.87820,-120.13204,083.3 051.0,083.3,051.0,47.000,47.343,,10.0199,,10.0301,,10.0250,33.8697,,33.8699,33.8688,,33.8704,33.8702,2.7965,,2.9044,2.9031,2.9638,,3.1343,2.6927,2.7979,121.717,126.5723,126.6831,129.001,132.1575,117.5378,122.1105,0.0336,,,0.0000,-99.0,,-99.0,-99.0,26.0669,,26.0645,,0.6607,84.7757,,7.790,,2.7320E+02,,2.5275E-03,,10.0146,10.0248,0.2143,,43.984,46.626,,,,,,,,,,,,
CalCOFI,2007SR,054,56,2007_054u,23-Jul-2020 14:50:07,23-Jul-2020 06:50:07,33.87820,-120.13206,083.3 051.0,083.3,051.0,46.000,46.335,,10.0292,,10.0304,,10.0298,33.8677,,33.8679,33.8688,,33.8704,33.8692,2.7953,,2.9031,2.9018,2.9694,,3.1476,2.7097,2.8058,121.665,126.5180,126.6289,129.244,132.0304,118.2755,122.4522,0.0340,,,0.0000,-99.0,,-99.0,-99.0,26.0638,,26.0644,,0.6625,84.7354,,7.793,,2.7231E+02,,7.2723E-03,,10.0240,10.0252,0.2143,,43.973,46.714,,,,,,,,,,,,
CalCOFI,2007SR,054,56,2007_054u,23-Jul-2020 14:50:08,23-Jul-2020 06:50:08,33.87820,-120.13206,083.3 051.0,083.3,051.0,45.000,45.328,,10.0315,,10.0331,,10.0323,33.8673,,33.8675,33.8682,,33.8698,33.8687,2.7973,,2.9052,2.9039,2.9713,,3.1522,2.7155,2.8097,121.754,126.6109,126.7216,129.329,132.2480,118.5336,122.6276,0.0335,,,0.0000,-99.0,,-99.0,-99.0,26.0630,,26.0635,,0.6631,84.7245,,7.793,,2.7231E+02,,7.0223E-03,,10.0264,10.0279,0.2143,,44.007,46.747,,,,,,,,,,,,
CalCOFI,2007SR,054,56,2007_054u,23-Jul-2020 14:50:10,23-Jul-2020 06:50:10,33.87820,-120.13206,083.3 051.0,083.3,051.0,44.000,44.320,,10.0413,,10.0436,,10.0425,33.8650,,33.8652,33.8656,,33.8672,33.8662,2.7975,,2.9054,2.9041,2.9745,,3.1598,2.7252,2.8147,121.763,126.6203,126.7310,129.466,132.2701,118.9495,122.8403,0.0349,,,0.0048,-99.0,,-99.0,-99.0,26.0596,,26.0596,,0.6648,84.6878,,7.793,,2.7231E+02,,7.8097E-03,,10.0362,10.0386,0.2143,,44.019,46.806,,,,,,,,,,,,
CalCOFI,2007SR,054,56,2007_054u,23-Jul-2020 14:50:12,23-Jul-2020 06:50:12,33.87820,-120.13206,083.3 051.0,083.3,051.0,43.000,43.313,,10.0455,,10.0458,,10.0457,33.8638,,33.8640,33.8647,,33.8663,33.8652,2.8003,,2.9083,2.9070,2.9810,,3.1753,2.7450,2.8260,121.885,126.7477,126.8581,129.749,132.5684,119.8087,123.3334,0.0344,,,0.0000,-99.0,,-99.0,-99.0,26.0579,,26.0585,,0.6664,84.6533,,7.794,,2.7231E+02,,8.0737E-03,,10.0406,10.0408,0.2143,,44.067,46.910,,,,,,,,,,,,
CalCOFI,2007SR,054,56,2007_054u,23-Jul-2020 14:50:15,23-Jul-2020 06:50:15,33.87820,-120.13205,083.3 051.0,083.3,051.0,42.000,42.306,,10.0510,,10.0468,,10.0489,33.8617,,33.8619,33.8642,,33.8658,33.8639,2.8036,,2.9118,2.9105,2.9853,,3.1856,2.7581,2.8343,122.030,126.8990,127.0092,129.939,132.9231,120.3855,123.6974,0.0344,,,0.0000,-99.0,,-99.0,-99.0,26.0553,,26.0580,,0.6698,84.5817,,7.796,,2.7280E+02,,1.9314E-02,,10.0462,10.0419,0.2143,,44.124,46.980,,,,,,,,,,,,